Other Public Products
Issued by NWS Grand Forks, ND

Home | Current Version | Previous Version | Text Only | Print | Product List | Glossary On
Versions: 1 2 3 4 5 6 7 8 9 10 11 12 13 14 15 16 17 18 19 20 21 22 23 24 25 26 27 28 29 30 31 32 33 34 35 36 37 38 39 40 41 42 43 44 45 46 47 48 49 50
000
FPUS83 KFGF 311931
OPUFGF
PRAIRIE TO PINES WEATHER ROUNDUP
NATIONAL WEATHER SERVICE EASTERN NORTH DAKOTA/GRAND FORKS ND
100 PM CST SAT JAN 31 2015

 **SATELLITE DATA USED TO AUGMENT SKY COVER AT AUTOMATED STATIONS**
 *****  WEATHER ACROSS EASTERN NORTH DAKOTA  *****

CITY           SKY/WX    TMP DP  RH WIND       PRES   REMARKS
GRAND FORKS    CLOUDY     2  -8  63 N18       30.46S WCI -19
GRAND FORKS AF FAIR       1 -10  59 N20G26    30.46S WCI -20
GRAND CITY NWS   N/A      1 N/A N/A VRB12       N/A  WCI -15
BUXTON           N/A      5  -5  62 N21         N/A  WCI -16
DEVILS LAKE    MOSUNNY    0 -13  55 NE17      30.39F WCI -21
FARGO          SUNNY     13  -3  49 N21       30.35F WCI  -5
WAHPETON ARPT  CLOUDY    18   1  49 N17       30.29F WCI   2
$$

 *****  WEATHER ACROSS CENTRAL AND WESTERN NORTH DAKOTA  *****

CITY           SKY/WX    TMP DP  RH WIND       PRES   REMARKS
JAMESTOWN      CLOUDY    10  -3  55 NE23      30.30F WCI -10
BISMARCK       MOSUNNY   15   4  61 E15G24    30.28F WCI   0
MINOT          LGT SNOW   3  -4  72 NE15      30.37F VSB 3/4 WCI -16
MINOT AFB      LGT SNOW   3   0  85 NE14      30.38F FOG     WCI -15
GARRISON         N/A      8   0  69 NE12      30.31R WCI  -7
WILLISTON      LGT SNOW  10   4  76 NE13      30.31S VSB 3/4 WCI  -5
DICKINSON      LGT SNOW  12   8  84 E17       30.14S FOG     WCI  -5
HETTINGER      CLOUDY    17  15  92 E17       30.12S FOG     WCI   1
$$

 *****  OTHER OBSERVATIONS NORTHEAST NORTH DAKOTA  *****

CITY           SKY/WX    TMP DP  RH WIND       PRES   REMARKS
WALHALLA         N/A     -4 -11  71 N16       30.53F WCI -25
LANGDON        NOT AVBL
CAVALIER       MOCLDY    -4 -11  71 N18G24    30.52F HAZE    WCI -26
GRAFTON        NOT AVBL
CANDO          FAIR      -2 -13  60 NE14G21   30.44F WCI -21
FORT TOTTEN      N/A      2  -9  60 NE7       29.95  WCI -11
ROLLA          FAIR      -8 -13  77 NE17      30.42S WCI -31
RUGBY          FAIR      -2  -9  71 NE21      30.41S WCI -25
 ***** THE ABOVE OBSERVATIONS ARE NON NWS ARE NOT QUALITY
        CONTROLLED AND MAY MIS-REPORT RAIN FOR SNOW...
$$

 *****  OTHER OBSERVATIONS SOUTHEAST NORTH DAKOTA *****

CITY           SKY/WX    TMP DP  RH WIND       PRES   REMARKS
COOPERSTOWN    NOT AVBL
VALLEY CITY    FLURRIES   9  -4  56 NE21      30.31F WCI -11
OAKES            N/A     14   1  57 NE24      30.27F WCI  -5
GWINNER        CLEAR     18   3  53 N21       30.30S WCI   1
SHEYENNE NWR     N/A     14  -2  49 NE16      29.95  WCI  -2
BUFFALO        NOT AVBL
WYNDMERE         N/A     14   1  57 N14         N/A  WCI  -1
 ***** THE ABOVE OBSERVATIONS ARE NON NWS ARE NOT QUALITY
       CONTROLLED AND MAY MIS-REPORT RAIN FOR SNOW...
$$

  *****  WEATHER ACROSS NORTHERN MINNESOTA  *****

CITY           SKY/WX    TMP DP  RH WIND       PRES   REMARKS
FLAG ISLAND    SUNNY     -2 -13  60 N10       30.43S WCI -19
WARROAD        SUNNY      1  -9  60 N8        30.42F WCI -12
ROSEAU         SUNNY      1  -9  60 N10       30.43S WCI -14
HALLOCK        SUNNY     -2 -13  60 N17       30.49S WCI -24
THF RVR FALLS  MOSUNNY    1  -6  71 N14       30.40R WCI -17
HALSTAD          N/A     10  -8  44 N20         N/A  WCI  -8
FOSSTON        SUNNY     12   1  62 N14       30.34F WCI  -3
BAUDETTE       SUNNY      0  -8  69 N13       30.38F WCI -18
WASKISH        SUNNY      7  -4  61 N9        30.35S WCI  -7
CROOKSTON      MOSUNNY    5  -6  61 N16       30.43S WCI -14
$$
  *****  WEATHER ACROSS CENTRAL AND WEST MINNESOTA  *****

CITY           SKY/WX    TMP DP  RH WIND       PRES   REMARKS
BEMIDJI        MOSUNNY    8  -3  61 N8        30.29F WCI  -5
PARK RAPIDS    SUNNY     16  -7  35 N13       30.25F WCI   2
WADENA         SUNNY     19  -2  38 NE12      30.23S WCI   7
DETROIT LAKES  SUNNY     18   1  49 NE8       30.27F WCI   7
MOORHEAD       MOSUNNY   16  -2  45 N20G25    30.34S WCI  -1
FERGUS FALLS   CLOUDY    18   3  53 N13G18    30.29S WCI   4
ELBOW LAKE     CLOUDY    22   7  52 NE10      30.23S WCI  11
MORRIS MN      CLOUDY    27  18  69 NE9       30.21F WCI  17
STAPLES        SUNNY     21  -4  33 N9        30.23S WCI  11
WHEATON        MOSUNNY   19  10  68 N13       30.27F WCI   7
$$
  *****  WEATHER ELSEWHERE ACROSS MINNESOTA  *****

CITY           SKY/WX    TMP DP  RH WIND       PRES   REMARKS
DULUTH         MOSUNNY   19   4  51 N9        30.21S WCI   8
INTRNTL FALLS  SUNNY      5  -6  60 N13       30.34S WCI -12
ELY            MOSUNNY   10  -2  56 NW5       30.25S WCI   2
CLOQUET        PTSUNNY   21   3  45 N9        30.21F WCI  11
BRAINERD       SUNNY     23   5  46 N12       30.23F WCI  12
HIBBING        SUNNY     16   1  51 N9        30.25S WCI   4
ALEXANDRIA     PTSUNNY   24  11  57 NE15      30.20F WCI  11
SAINT CLOUD    MOSUNNY   27  15  61 NE8       30.21F WCI  19
MINNEAPOLIS    CLOUDY    28  20  71 N13       30.20F WCI  17
$$

  *****  WEATHER ACROSS SOUTH DAKOTA  *****

CITY           SKY/WX    TMP DP  RH WIND       PRES   REMARKS
SIOUX FALLS    CLOUDY    26  24  92 NE16      30.10F WCI  14
BROOKINGS      NOT AVBL
WATERTOWN      CLOUDY    17  14  88 NE16      30.15F WCI   2
HURON          CLOUDY    22  17  81 NE17      30.16F WCI   8
SISSETON         N/A     17   7  64 NE17      30.25F WCI   1
ABERDEEN       PTSUNNY   17   3  54 NE18      30.25F WCI   1
MITCHELL       CLOUDY    25  22  88 NE16      30.12F FOG     WCI  12
PIERRE         CLOUDY    21  19  92 E20       30.11F WCI   6
MOBRIDGE       CLOUDY    20  12  71 NE14      30.17F WCI   7
RAPID CITY     FOG       25  25 100 E8        29.99F VSB 3/4 WCI  16
$$

  *****  SOME WEATHER IN NEARBY STATES *****

CITY           SKY/WX    TMP DP  RH WIND       PRES   REMARKS
GLASGOW MT     SNOW      13   7  77 NE21      30.23R VSB 1/2 WCI  -5
GREAT FALLS MT LGT SNOW  16  10  79 NW16      30.26S WCI   0
CHEYENNE WY    FLURRIES  32  26  78 NW6       29.84F
SCOTTSBLUFF NE SNOW      32  31  96 NW7       29.89F VSB 1/2
OMAHA NE       LGT SNOW  33  32  96 S12       30.07F VSB 3/4 WCI  24
DES MOINES IA  LGT RAIN  39  35  86 SW12      30.15F
DAVENPORT IA   CLOUDY    34  30  85 SW9       30.18S FOG
CHICAGO IL     CLOUDY    35  23  61 W10       30.16F
EAU CLAIRE WI  CLOUDY    28  19  69 NE7       30.18S WCI  21
LA CROSSE WI   CLOUDY    31  21  66 NW6       30.17F
$$

  *****  SOME NATIONAL WEATHER *****

CITY           SKY/WX    TMP DP  RH WIND       PRES   REMARKS
LA GUARDIA NY  SUNNY     25   2  37 NW22G31   30.09F WCI  10
RALEIGH NC     MOSUNNY   45   3  17 VRB5      30.31F
ATLANTA GA     PTSUNNY   52  17  25 CALM      30.32F
NEW ORLEANS LA PTSUNNY   61  46  57 E9        30.24F
OKLAHOMA CITY  LGT RAIN  43  37  79 S17       30.05F
ALBUQUERQUE NM CLOUDY    36  35  96 NW5       29.93F FOG
SALT LAKE CITY MOSUNNY   42  30  62 NW14      30.05S
LOS ANGELES CA MOSUNNY   64  54  69 SE3       29.93R
BOISE ID       SUNNY     41  30  65 NW12      30.18F
SEATTLE WA     CLOUDY    41  39  93 N5        30.22F FOG
$$

*** WEATHER ACROSS MANITOBA...SASKATCHEWAN AND ONTARIO ***
                ***ONTARIO***

CITY           SKY/WX    TMP DP  RH WIND       PRES   REMARKS
GERALDTON      MOSUNNY  N/A N/A N/A NW12G21     N/A
THUNDER BAY    MOSUNNY   10  -8  44 NW14G22   30.31R WCI  -5
SIOUX LOOKOUT  SUNNY     -9 -22  54 N9        30.38S WCI -27
TORONTO        PTSUNNY   23  12  63 SW7       30.19F WCI  15
BIG TROUT LK   SUNNY    -20 -29  63 W13G20    30.35S WCI -43
PICKLE LAKE    CRYSTALS -13 -24  58 W8        30.33S WCI -30
DRYDEN         SUNNY     -6 -18  54 NE8       30.38R WCI -21
KENORA         MOSUNNY   -6 -15  65 N8        30.40S WCI -21
$$
                *** MANITOBA***

CITY           SKY/WX    TMP DP  RH WIND       PRES   REMARKS
BRANDON        MOSUNNY   -9 -18  64 E13       30.54S WCI -30
DAUPHIN        SUNNY    -13 -22  64 N5        30.64F WCI -25
ISLAND LAKE    SUNNY    -18 -27  63 W12       30.49F WCI -40
PILOT MOUND      N/A    -11 -20  64 N14         N/A  WCI -33
THE PAS        MOSUNNY  -15 -26  58 NW12      30.65F WCI -36
THOMPSON       CRYSTALS -18 -29  57 W10       30.53F WCI -39
WINNIPEG       MOSUNNY   -9 -18  64 N18       30.58F WCI -33
LYNN LAKE      SUNNY    -20 -29  63 W12       30.51F WCI -42
CHURCHILL      MOSUNNY  -20 -27  69 NW24G32   30.34  BLWGSNOWWCI -51
GILLAM         SUNNY    -20 -31  57 W14       30.43F WCI -44
$$
                ***SASKATCHEWAN***

CITY           SKY/WX    TMP DP  RH WIND       PRES   REMARKS
ESTEVAN        CLOUDY     3  -6  66 NE16G23   30.40  WCI -16
KINDERSLEY     CLOUDY    -4  -9  77 NE9       30.50S WCI -20
LLOYDMINSTER   CLOUDY    -6 -13  71 SE5       30.52F WCI -17
PRINCE ALBERT  PTSUNNY  -13 -22  64 W5        30.65  WCI -25
REGINA         PTSUNNY    0 -11  60 NE14      30.47R WCI -19


USA.gov is the U.S. government's official web portal to all federal, state and local government web resources and services.